Wind_Speed
10 10 10 10 11 11 11 11 12 12 11 11 10 9 9 9 10 11 12 13 13 13 14 14 13 14 15 16 17 18 18 18 18 19 21 21 22 23 24 23 22 23 24
11 11 11 11 11 12 13 13 13 12 11 11 10 10 10 10 12 12 13 14 14 14 14 14 15 15 16 16 16 17 18 18 19 20 21 22 22 23 24 24 24 24 24
12 12 12 12 12 12 13 14 13 13 11 11 10 11 11 12 12 12 12 13 14 14 15 15 16 17 17 17 18 18 19 20 20 20 21 21 22 22 23 23 24 25 26
14 14 14 13 13 14 14 14 14 12 11 11 11 11 12 12 12 12 12 13 14 15 15 16 17 18 19 19 20 20 20 20 21 21 21 22 22 23 24 24 25 27 28
15 15 16 15 15 15 15 15 14 13 12 12 11 11 12 13 12 13 14 15 15 16 16 17 18 19 19 20 20 21 22 22 22 23 23 23 24 25 26 27 27 28 29
16 16 16 16 16 16 15 14 14 13 13 13 13 13 14 13 13 14 15 15 15 16 17 18 19 19 20 20 21 21 22 22 22 23 23 24 25 26 27 28 28 29 30
16 15 16 16 16 16 14 13 13 13 13 14 14 15 15 15 15 15 15 15 16 16 17 18 20 20 21 21 21 22 23 23 24 25 25 26 27 27 28 28 29 29 30
14 14 15 16 16 15 14 13 14 14 14 15 14 15 15 15 15 15 16 16 17 18 19 19 20 21 22 22 23 23 24 25 25 25 26 27 27 28 29 29 29 29 30
14 13 13 14 15 15 14 14 14 14 14 14 14 15 15 15 15 16 17 18 19 19 19 20 21 22 22 23 24 24 25 26 26 27 27 27 28 29 29 29 29 30 30
13 13 13 13 13 13 13 13 13 13 13 14 14 14 14 15 16 17 17 18 19 19 20 21 21 22 23 24 25 25 26 26 26 26 27 28 28 29 29 29 30 31 31
13 13 13 12 12 12 11 12 12 13 14 14 14 15 15 16 17 17 18 18 19 20 21 22 23 23 24 25 25 25 25 26 26 27 28 28 28 29 29 30 31 32 33
14 14 14 13 13 12 12 12 12 13 14 14 15 15 15 15 16 17 18 19 20 21 22 22 23 23 24 25 25 25 26 26 27 28 28 29 29 30 31 31 32 33 33
15 15 15 14 13 13 12 13 13 14 15 15 15 16 16 16 17 18 19 20 20 21 22 22 23 23 24 25 26 26 27 28 28 29 29 30 31 31 32 32 33 33 33
15 16 15 15 14 14 14 15 15 16 15 15 16 16 17 18 18 19 20 20 21 22 23 23 24 25 25 25 26 27 28 29 29 29 30 30 31 32 32 32 33 33 33
16 16 16 15 15 16 16 16 16 15 16 16 17 17 18 19 20 20 21 21 22 22 24 24 25 26 26 26 27 28 29 29 29 30 30 31 31 31 31 31 31 31 32
17 17 16 16 16 16 16 15 15 15 16 17 18 18 19 20 21 21 22 23 23 24 25 26 26 26 27 28 28 29 29 29 29 30 30 30 30 30 30 30 31 31 31
17 17 16 16 16 16 16 16 16 17 18 18 18 19 20 21 21 22 23 23 24 25 26 26 26 26 27 27 28 28 29 29 29 29 29 30 30 30 30 30 30 31 31
16 17 16 16 17 17 17 17 18 19 19 19 20 20 21 21 22 22 23 24 25 25 25 25 26 26 27 28 28 28 29 29 29 29 29 30 30 29 30 30 31 31 31
17 17 17 17 17 17 18 18 18 19 20 20 21 20 21 22 22 23 23 24 25 26 26 26 27 28 28 29 29 28 29 29 30 30 30 30 30 30 30 30 31 31 31
18 17 17 17 18 18 18 19 19 20 20 20 20 21 21 22 22 23 24 25 26 26 27 27 28 28 28 28 28 28 29 29 29 29 29 29 29 30 30 30 30 31 31
18 18 19 19 19 18 18 19 20 20 20 21 21 21 22 22 23 24 25 26 27 27 27 27 28 28 28 28 28 28 28 29 29 29 29 29 29 30 30 30 30 31 30
19 19 19 19 19 19 20 21 21 21 21 22 22 22 23 23 24 25 25 26 26 26 27 27 27 28 28 28 28 28 28 29 29 29 29 30 30 30 30 30 30 30 30
20 19 19 20 20 20 21 22 21 21 21 22 23 23 23 24 25 26 26 27 27 27 27 27 28 28 28 28 28 29 29 29 29 29 29 30 30 30 30 29 29 30 30
20 20 20 21 21 21 22 22 22 22 23 23 24 24 25 25 26 26 27 27 28 28 28 28 28 28 29 29 30 30 29 29 29 29 29 29 30 30 30 29 29 28 28
20 21 21 21 22 23 23 23 23 23 24 25 26 26 26 26 26 27 27 28 28 29 29 29 29 29 29 29 29 30 29 29 29 29 30 30 30 30 29 29 29 29 29
21 21 22 22 22 22 23 23 24 25 25 25 25 25 25 26 26 27 28 28 29 29 29 28 29 30 30 30 30 30 30 30 30 30 30 30 30 30 29 29 29 29 29
Wind_Direction
306 309 310 311 313 316 316 312 309 308 304 302 294 287 286 289 289 288 281 280 282 285 285 285 285 288 291 293 291 287 288 289 289 288 289 288 289 286 284 283 281 281 281
297 299 302 303 305 308 311 310 307 308 300 295 292 287 289 292 290 289 283 279 282 281 283 284 287 291 293 295 294 294 291 289 290 289 289 288 287 286 286 282 282 282 282
291 292 295 295 296 300 305 308 305 304 301 295 292 288 290 293 291 289 290 283 282 285 284 286 289 292 294 296 296 296 294 294 292 291 290 291 290 289 288 284 283 282 283
290 290 293 292 292 294 297 299 298 296 296 296 295 294 293 293 293 290 294 290 286 289 288 289 290 291 294 295 297 296 296 296 295 294 293 290 290 290 289 288 286 284 285
290 290 291 291 289 289 291 292 294 292 289 291 294 294 294 297 294 290 293 293 288 288 290 291 291 292 293 295 297 298 297 296 295 293 293 292 293 292 291 289 288 287 287
292 290 288 286 286 287 285 284 287 289 290 289 288 291 292 293 293 294 296 297 293 290 291 293 292 294 295 295 296 296 297 297 296 296 295 295 295 297 296 294 292 291 291
289 288 284 283 285 288 284 283 287 288 290 288 286 290 291 290 290 292 294 294 294 295 296 297 297 294 298 298 296 297 296 297 297 297 297 298 298 297 297 296 295 295 294
290 289 288 288 290 292 290 286 288 289 292 288 285 289 292 292 291 293 295 295 297 297 297 298 299 299 299 301 300 299 299 299 299 298 299 299 299 298 298 297 296 295 295
294 293 299 296 295 296 289 286 289 290 294 294 290 291 293 293 293 296 297 297 297 297 297 298 299 299 300 301 301 300 300 299 299 298 298 298 299 300 300 299 298 297 297
295 300 303 301 298 297 295 293 290 293 297 299 297 294 294 294 296 299 300 300 300 299 299 299 299 301 301 301 300 300 301 301 300 301 300 300 300 300 300 299 299 298 298
296 301 302 304 300 298 299 301 298 299 301 301 300 301 298 297 298 300 301 303 303 303 302 301 302 303 302 302 302 303 304 303 303 303 302 301 301 301 301 300 299 299 299
293 298 300 301 299 298 300 302 302 305 305 303 302 302 304 305 307 307 306 305 306 306 306 306 305 304 303 304 304 304 304 303 303 303 304 303 303 303 302 301 300 299 299
289 294 297 297 295 297 300 302 302 305 308 308 306 307 309 310 310 310 310 309 310 309 309 309 309 307 306 305 304 304 304 303 302 303 303 303 303 303 303 302 302 301 301
286 291 294 295 294 294 299 301 302 303 306 307 308 310 311 311 311 311 311 311 310 310 309 308 309 309 307 305 305 305 305 304 304 304 305 305 304 304 303 303 303 303 303
285 288 291 293 294 294 298 300 301 302 304 305 306 308 309 310 311 312 312 311 310 309 308 308 308 308 307 307 306 306 306 307 306 305 305 305 306 305 304 303 304 304 304
286 290 290 293 295 295 295 298 299 300 303 306 306 307 307 307 309 310 311 311 311 310 309 308 308 307 307 307 307 307 307 307 306 305 306 307 307 307 306 306 305 306 306
284 289 290 292 294 294 294 296 299 301 303 305 306 306 307 308 308 309 310 311 311 311 311 309 308 308 308 308 308 308 308 307 306 305 306 307 307 307 307 307 307 307 307
283 289 290 292 293 293 294 296 298 300 302 303 305 305 305 306 307 309 311 312 312 312 312 311 310 310 309 310 310 310 309 308 307 307 307 308 308 308 308 308 309 309 308
283 287 288 291 292 292 294 295 296 298 300 302 304 305 306 306 307 309 311 312 312 311 311 311 310 310 311 311 311 309 308 308 308 308 308 309 309 308 309 309 310 310 309
281 282 284 287 290 291 292 294 296 298 300 302 304 305 307 308 309 310 311 312 312 311 311 311 310 310 310 310 311 310 310 309 308 309 310 310 310 310 309 309 310 311 311
279 280 282 284 286 289 293 296 297 298 300 302 303 305 307 308 309 309 310 311 310 310 311 312 312 311 310 310 311 311 311 311 311 311 311 311 311 311 311 311 311 312 313
276 277 280 282 284 288 291 294 296 297 298 300 302 304 306 308 308 309 310 311 311 312 313 314 314 312 312 312 313 313 313 313 313 313 312 311 311 311 312 312 313 314 315
275 276 278 281 284 287 289 292 294 295 297 298 301 303 304 306 307 308 309 311 311 311 312 312 312 312 312 313 314 314 314 314 313 313 313 312 312 312 313 313 312 313 314
275 277 279 281 284 286 289 291 293 295 297 298 300 301 303 304 306 307 309 310 310 310 310 311 311 312 313 313 314 314 314 314 314 314 314 313 312 312 312 311 311 312 313
275 278 281 283 285 285 286 289 292 294 295 297 299 300 302 304 305 307 308 308 308 307 308 309 310 311 312 313 313 313 314 315 315 315 313 312 312 312 312 312 313 313 313
278 281 282 283 285 286 288 289 292 294 295 297 299 300 301 303 304 305 305 306 307 307 308 309 310 310 310 311 312 313 313 314 315 315 314 314 313 313 313 313 314 315 315
Height
5906 5905 5903 5902 5901 5900 5898 5897 5895 5893 5892 5890 5889 5889 5889 5888 5888 5887 5886 5886 5885 5884 5883 5881 5880 5879 5878 5876 5875 5874 5872 5871 5869 5867 5865 5863 5861 5859 5858 5856 5854 5853 5851
5903 5902 5901 5899 5898 5897 5895 5893 5892 5890 5888 5887 5887 5886 5886 5885 5884 5883 5882 5882 5881 5880 5879 5878 5877 5875 5874 5872 5870 5869 5867 5866 5864 5862 5860 5858 5856 5854 5851 5850 5848 5846 5844
5900 5899 5898 5896 5895 5894 5892 5890 5889 5887 5886 5885 5884 5883 5882 5881 5880 5879 5879 5878 5877 5876 5875 5874 5873 5871 5870 5868 5866 5864 5862 5860 5858 5857 5854 5852 5850 5848 5845 5843 5841 5839 5837
5896 5895 5894 5893 5891 5890 5889 5887 5885 5884 5883 5882 5881 5880 5879 5878 5877 5876 5875 5874 5874 5872 5871 5870 5868 5867 5865 5863 5861 5859 5857 5855 5853 5851 5848 5846 5844 5841 5839 5837 5834 5832 5830
5892 5891 5890 5888 5887 5886 5885 5884 5882 5881 5879 5878 5877 5876 5875 5874 5873 5872 5871 5870 5869 5868 5867 5865 5864 5862 5860 5858 5856 5854 5852 5850 5847 5845 5842 5840 5837 5835 5832 5830 5827 5825 5822
5888 5886 5885 5884 5883 5882 5881 5880 5878 5877 5876 5875 5874 5873 5872 5871 5870 5869 5867 5866 5865 5863 5862 5860 5859 5857 5854 5852 5850 5848 5846 5844 5841 5839 5836 5833 5831 5828 5825 5822 5820 5817 5814
5883 5881 5880 5879 5878 5877 5876 5875 5874 5873 5872 5871 5870 5869 5868 5867 5865 5864 5863 5862 5860 5859 5857 5855 5853 5851 5849 5846 5844 5842 5840 5837 5835 5832 5830 5827 5824 5821 5818 5815 5812 5809 5806
5879 5877 5876 5875 5874 5873 5872 5871 5870 5869 5868 5866 5865 5865 5863 5862 5861 5860 5858 5857 5855 5854 5852 5850 5848 5846 5843 5841 5838 5836 5834 5831 5828 5826 5823 5820 5817 5814 5811 5807 5804 5801 5798
5875 5873 5873 5872 5871 5869 5868 5867 5866 5865 5864 5862 5861 5860 5859 5857 5856 5855 5854 5852 5850 5848 5846 5844 5842 5840 5837 5835 5832 5830 5827 5824 5821 5818 5815 5812 5809 5806 5802 5799 5796 5793 5790
5872 5870 5870 5868 5867 5866 5864 5863 5862 5861 5860 5859 5857 5856 5854 5853 5852 5851 5849 5847 5845 5843 5840 5838 5836 5834 5831 5828 5825 5823 5820 5817 5814 5811 5808 5804 5801 5798 5794 5791 5787 5784 5781
5868 5868 5866 5865 5864 5862 5861 5860 5859 5858 5857 5855 5853 5852 5850 5849 5847 5846 5844 5842 5839 5837 5835 5832 5829 5827 5824 5821 5819 5816 5813 5810 5807 5803 5800 5797 5793 5790 5786 5782 5779 5775 5771
5865 5864 5863 5862 5860 5859 5858 5857 5856 5854 5853 5851 5850 5848 5846 5845 5843 5841 5839 5836 5834 5832 5829 5826 5823 5821 5818 5815 5812 5809 5806 5803 5799 5795 5792 5788 5785 5781 5777 5774 5770 5766 5762
5860 5860 5859 5858 5856 5855 5854 5853 5852 5850 5849 5847 5846 5844 5842 5840 5838 5836 5834 5831 5829 5826 5823 5820 5817 5814 5811 5808 5805 5802 5799 5795 5791 5787 5784 5780 5777 5772 5768 5764 5760 5756 5752
5856 5855 5855 5854 5852 5851 5850 5849 5848 5846 5845 5843 5841 5839 5838 5836 5834 5831 5828 5826 5823 5820 5817 5814 5811 5808 5805 5802 5798 5795 5791 5787 5783 5780 5776 5772 5768 5764 5760 5756 5752 5747 5743
5852 5851 5851 5849 5848 5847 5846 5844 5843 5842 5841 5839 5837 5835 5833 5831 5829 5826 5823 5820 5817 5814 5811 5808 5805 5802 5798 5795 5791 5787 5784 5780 5776 5772 5768 5764 5760 5755 5751 5747 5743 5739 5735
5847 5847 5846 5845 5843 5842 5841 5840 5839 5838 5836 5834 5832 5830 5828 5826 5823 5820 5818 5815 5811 5808 5805 5801 5798 5794 5791 5787 5784 5780 5776 5772 5768 5764 5760 5756 5752 5748 5743 5739 5735 5731 5727
5843 5842 5841 5840 5839 5837 5837 5836 5834 5833 5831 5829 5827 5825 5823 5820 5818 5815 5812 5809 5805 5802 5798 5795 5791 5788 5784 5780 5776 5773 5769 5764 5760 5756 5752 5748 5744 5740 5736 5732 5727 5723 5719
5838 5837 5836 5835 5834 5833 5832 5831 5829 5828 5826 5824 5822 5820 5817 5814 5812 5809 5806 5803 5799 5796 5792 5788 5785 5781 5777 5773 5769 5765 5761 5757 5753 5749 5745 5741 5737 5732 5728 5724 5720 5715 5711
5832 5832 5831 5830 5829 5828 5827 5826 5824 5823 5821 5819 5816 5814 5811 5809 5806 5803 5800 5797 5793 5789 5786 5782 5778 5774 5770 5766 5762 5758 5754 5750 5746 5742 5737 5733 5729 5725 5721 5716 5712 5708 5703
5827 5827 5826 5825 5824 5823 5822 5820 5819 5817 5815 5813 5811 5808 5806 5803 5800 5797 5794 5790 5787 5783 5780 5776 5772 5768 5764 5759 5755 5751 5746 5742 5738 5734 5730 5726 5722 5717 5713 5709 5705 5700 5696
5821 5821 5820 5820 5819 5818 5816 5815 5813 5811 5809 5807 5805 5803 5800 5797 5794 5791 5788 5784 5781 5777 5773 5769 5765 5761 5757 5752 5748 5744 5739 5735 5731 5727 5723 5719 5715 5710 5706 5702 5697 5693 5688
5815 5815 5815 5814 5813 5812 5810 5809 5807 5805 5803 5801 5799 5796 5793 5791 5788 5785 5781 5778 5774 5771 5767 5763 5758 5754 5750 5746 5741 5737 5732 5728 5724 5720 5716 5711 5707 5703 5699 5694 5690 5685 5681
5809 5809 5808 5808 5807 5806 5804 5803 5801 5799 5797 5795 5793 5790 5787 5784 5781 5778 5775 5771 5768 5764 5760 5756 5752 5748 5743 5739 5734 5730 5725 5721 5717 5713 5708 5704 5700 5696 5691 5687 5683 5678 5674
5803 5802 5802 5801 5800 5799 5798 5796 5794 5792 5791 5788 5786 5783 5781 5778 5775 5771 5768 5764 5761 5757 5753 5749 5745 5741 5736 5732 5728 5723 5719 5714 5710 5706 5702 5697 5693 5689 5684 5680 5675 5671 5667
5796 5796 5795 5794 5793 5792 5791 5789 5788 5786 5784 5781 5779 5776 5774 5771 5768 5764 5761 5757 5754 5750 5746 5742 5738 5733 5729 5725 5721 5716 5712 5708 5703 5699 5695 5690 5686 5681 5677 5673 5669 5664 5660
5790 5789 5788 5787 5786 5785 5784 5782 5781 5779 5777 5774 5772 5769 5766 5763 5761 5757 5754 5750 5746 5742 5738 5734 5730 5726 5722 5718 5713 5709 5705 5700 5696 5692 5687 5683 5679 5674 5670 5666 5661 5657 5653